sat.trackr.live / text

‹ back to catalog

STARLINK-34335

NORAD 64362 · 2025-126U

PAYLOAD ACTIVE UNKNOWN

§ Identity

Operator
Country
US
Launch date
2025-06-13
Launch site
AFWTR
Launch vehicle
Mass (kg)
RCS (m²)

Purposes: comms

External: N2YO · Heavens-Above · Gunter

§ Orbital elements

Epoch: 2026-09-20T09:56:58.312320Z

Period
94.14 min
Inclination
70.0020°
Eccentricity
0.0004194
Mean motion
15.29603324 rev/d
Perigee alt
474.1 km
Apogee alt
479.9 km
Semi-major
6,855.1 km
B*
5.5740e-4
RAAN
261.3374°
Arg perigee
272.3493°
Mean anomaly
87.7202°
Rev number
6,990

§ Raw data

STARLINK-343351 64362U 25126U   26263.41456380  .00015942  00000+0  55740-3 0  99912 64362  70.0020 261.3374 0004194 272.3493  87.7202 15.29603324 69901

JSON: /api/v1/satellites/64362 · /tle

For live sub-satellite position, see the globe view (requires WebGL).

§ Visibility from observer

Set your observer location to see the next 7 days of passes ≥ 10°. The values pass through the URL so the page stays shareable.

No JS? Fill the form by hand. The geolocation button needs JavaScript.